Year,Month,Day,Hour,Minute,Value (Times are PST for windgust in km/hr)
2013,09,29,00,00,4.80
2013,09,29,00,01,4.80
2013,09,29,00,02,4.80
2013,09,29,00,03,4.80
2013,09,29,00,04,4.80
2013,09,29,00,05,6.40
2013,09,29,00,06,4.80
2013,09,29,00,07,6.40
2013,09,29,00,08,6.40
2013,09,29,00,09,6.40
2013,09,29,00,11,1.60
2013,09,29,00,12,9.60
2013,09,29,00,13,4.80
2013,09,29,00,14,4.80
2013,09,29,00,15,6.40
2013,09,29,00,16,3.20
2013,09,29,00,17,3.20
2013,09,29,00,19,1.60
2013,09,29,00,20,1.60
2013,09,29,00,21,1.60
2013,09,29,00,22,3.20
2013,09,29,00,23,3.20
2013,09,29,00,24,3.20
2013,09,29,00,25,3.20
2013,09,29,00,27,3.20
2013,09,29,00,28,3.20
2013,09,29,00,29,3.20
2013,09,29,00,30,4.80
2013,09,29,00,31,4.80
2013,09,29,00,32,3.20
2013,09,29,00,33,3.20
2013,09,29,00,34,4.80
2013,09,29,00,35,3.20
2013,09,29,00,36,3.20
2013,09,29,00,37,3.20
2013,09,29,00,38,4.80
2013,09,29,00,39,4.80
2013,09,29,00,40,6.40
2013,09,29,00,41,4.80
2013,09,29,00,42,4.80
2013,09,29,00,43,1.60
2013,09,29,00,44,3.20
2013,09,29,00,45,1.60
2013,09,29,00,46,1.60
2013,09,29,00,47,1.60
2013,09,29,00,48,1.60
2013,09,29,00,49,6.40
2013,09,29,00,50,6.40
2013,09,29,00,51,6.40
2013,09,29,00,52,6.40
2013,09,29,00,53,9.60
2013,09,29,00,54,8.10
2013,09,29,00,55,4.80
2013,09,29,00,56,1.60
2013,09,29,00,57,1.60
2013,09,29,00,58,3.20
2013,09,29,00,59,1.60
2013,09,29,01,00,4.80
2013,09,29,01,01,3.20
2013,09,29,01,04,3.20
2013,09,29,01,05,3.20
2013,09,29,01,06,3.20
2013,09,29,01,07,3.20
2013,09,29,01,10,1.60
2013,09,29,01,15,3.20
2013,09,29,01,16,3.20
2013,09,29,01,17,3.20
2013,09,29,01,18,3.20
2013,09,29,01,19,4.80
2013,09,29,01,20,4.80
2013,09,29,01,21,6.40
2013,09,29,01,22,6.40
2013,09,29,01,23,6.40
2013,09,29,01,24,4.80
2013,09,29,01,25,3.20
2013,09,29,01,26,3.20
2013,09,29,01,27,3.20
2013,09,29,01,28,3.20
2013,09,29,01,29,1.60
2013,09,29,01,30,6.40
2013,09,29,01,31,6.40
2013,09,29,01,32,3.20
2013,09,29,01,33,3.20
2013,09,29,01,34,8.10
2013,09,29,01,35,8.10
2013,09,29,01,36,6.40
2013,09,29,01,37,9.60
2013,09,29,01,38,9.60
2013,09,29,01,39,6.40
2013,09,29,01,40,1.60
2013,09,29,01,41,6.40
2013,09,29,01,42,6.40
2013,09,29,01,43,6.40
2013,09,29,01,44,3.20
2013,09,29,01,46,1.60
2013,09,29,01,47,3.20
2013,09,29,01,48,3.20
2013,09,29,01,49,3.20
2013,09,29,01,50,4.80
2013,09,29,01,51,4.80
2013,09,29,01,52,3.20
2013,09,29,01,53,4.80
2013,09,29,01,54,4.80
2013,09,29,01,55,3.20
2013,09,29,01,56,4.80
2013,09,29,01,57,6.40
2013,09,29,01,58,3.20
2013,09,29,01,59,6.40
2013,09,29,02,00,6.40
2013,09,29,02,01,8.10
2013,09,29,02,02,11.30
2013,09,29,02,03,8.10
2013,09,29,02,04,8.10
2013,09,29,02,05,6.40
2013,09,29,02,06,4.80
2013,09,29,02,07,4.80
2013,09,29,02,08,1.60
2013,09,29,02,09,3.20
2013,09,29,02,10,6.40
2013,09,29,02,11,6.40
2013,09,29,02,12,3.20
2013,09,29,02,13,3.20
2013,09,29,02,14,1.60
2013,09,29,02,16,3.20
2013,09,29,02,17,4.80
2013,09,29,02,18,4.80
2013,09,29,02,19,6.40
2013,09,29,02,20,6.40
2013,09,29,02,21,4.80
2013,09,29,02,22,4.80
2013,09,29,02,23,4.80
2013,09,29,02,24,1.60
2013,09,29,02,25,4.80
2013,09,29,02,26,3.20
2013,09,29,02,27,4.80
2013,09,29,02,28,4.80
2013,09,29,02,29,8.10
2013,09,29,02,30,3.20
2013,09,29,02,31,3.20
2013,09,29,02,32,1.60
2013,09,29,02,33,1.60
2013,09,29,02,34,1.60
2013,09,29,02,36,3.20
2013,09,29,02,37,3.20
2013,09,29,02,38,3.20
2013,09,29,02,39,3.20
2013,09,29,02,40,6.40
2013,09,29,02,41,4.80
2013,09,29,02,42,3.20
2013,09,29,02,43,3.20
2013,09,29,02,44,3.20
2013,09,29,02,45,3.20
2013,09,29,02,46,4.80
2013,09,29,02,47,3.20
2013,09,29,02,48,6.40
2013,09,29,02,49,6.40
2013,09,29,02,50,4.80
2013,09,29,02,51,6.40
2013,09,29,02,52,4.80
2013,09,29,02,53,4.80
2013,09,29,02,54,3.20
2013,09,29,02,55,4.80
2013,09,29,02,56,4.80
2013,09,29,02,57,1.60
2013,09,29,02,58,1.60
2013,09,29,02,59,1.60
2013,09,29,03,02,6.40
2013,09,29,03,03,3.20
2013,09,29,03,04,3.20
2013,09,29,03,05,3.20
2013,09,29,03,06,3.20
2013,09,29,03,07,1.60
2013,09,29,03,08,1.60
2013,09,29,03,09,3.20
2013,09,29,03,10,4.80
2013,09,29,03,11,4.80
2013,09,29,03,12,4.80
2013,09,29,03,13,1.60
2013,09,29,03,14,4.80
2013,09,29,03,15,4.80
2013,09,29,03,16,3.20
2013,09,29,03,18,6.40
2013,09,29,03,19,3.20
2013,09,29,03,20,4.80
2013,09,29,03,21,3.20
2013,09,29,03,22,3.20
2013,09,29,03,23,6.40
2013,09,29,03,24,6.40
2013,09,29,03,25,3.20
2013,09,29,03,26,3.20
2013,09,29,03,27,1.60
2013,09,29,03,28,3.20
2013,09,29,03,29,1.60
2013,09,29,03,30,1.60
2013,09,29,03,31,1.60
2013,09,29,03,32,3.20
2013,09,29,03,33,4.80
2013,09,29,03,34,8.10
2013,09,29,03,35,6.40
2013,09,29,03,36,3.20
2013,09,29,03,37,3.20
2013,09,29,03,38,3.20
2013,09,29,03,39,4.80
2013,09,29,03,40,1.60
2013,09,29,03,41,3.20
2013,09,29,03,42,3.20
2013,09,29,03,43,1.60
2013,09,29,03,44,3.20
2013,09,29,03,45,1.60
2013,09,29,03,46,4.80
2013,09,29,03,47,6.40
2013,09,29,03,48,4.80
2013,09,29,03,49,6.40
2013,09,29,03,50,8.10
2013,09,29,03,51,8.10
2013,09,29,03,52,4.80
2013,09,29,03,53,4.80
2013,09,29,03,54,4.80
2013,09,29,03,55,4.80
2013,09,29,03,56,6.40
2013,09,29,03,57,6.40
2013,09,29,03,58,3.20
2013,09,29,03,59,4.80
2013,09,29,04,00,3.20
2013,09,29,04,01,4.80
2013,09,29,04,02,3.20
2013,09,29,04,03,4.80
2013,09,29,04,04,4.80
2013,09,29,04,05,3.20
2013,09,29,04,06,3.20
2013,09,29,04,07,4.80
2013,09,29,04,08,3.20
2013,09,29,04,09,4.80
2013,09,29,04,10,4.80
2013,09,29,04,11,3.20
2013,09,29,04,12,3.20
2013,09,29,04,13,3.20
2013,09,29,04,14,4.80
2013,09,29,04,15,6.40
2013,09,29,04,16,1.60
2013,09,29,04,17,6.40
2013,09,29,04,18,6.40
2013,09,29,04,19,1.60
2013,09,29,04,20,4.80
2013,09,29,04,21,3.20
2013,09,29,04,22,4.80
2013,09,29,04,23,4.80
2013,09,29,04,24,4.80
2013,09,29,04,25,4.80
2013,09,29,04,26,3.20
2013,09,29,04,27,3.20
2013,09,29,04,28,1.60
2013,09,29,04,30,3.20
2013,09,29,04,31,6.40
2013,09,29,04,32,1.60
2013,09,29,04,33,4.80
2013,09,29,04,34,3.20
2013,09,29,04,35,4.80
2013,09,29,04,36,3.20
2013,09,29,04,37,4.80
2013,09,29,04,38,4.80
2013,09,29,04,39,1.60
2013,09,29,04,40,1.60
2013,09,29,04,41,1.60
2013,09,29,04,44,3.20
2013,09,29,04,45,4.80
2013,09,29,04,46,1.60
2013,09,29,04,47,3.20
2013,09,29,04,48,3.20
2013,09,29,04,49,3.20
2013,09,29,04,50,3.20
2013,09,29,04,51,3.20
2013,09,29,04,52,3.20
2013,09,29,04,53,3.20
2013,09,29,04,54,1.60
2013,09,29,04,55,1.60
2013,09,29,04,56,3.20
2013,09,29,04,57,4.80
2013,09,29,04,58,4.80
2013,09,29,05,02,1.60
2013,09,29,05,04,4.80
2013,09,29,05,05,3.20
2013,09,29,05,06,3.20
2013,09,29,05,07,1.60
2013,09,29,05,08,3.20
2013,09,29,05,09,6.40
2013,09,29,05,10,4.80
2013,09,29,05,11,1.60
2013,09,29,05,12,1.60
2013,09,29,05,13,3.20
2013,09,29,05,14,4.80
2013,09,29,05,15,4.80
2013,09,29,05,16,4.80
2013,09,29,05,17,4.80
2013,09,29,05,18,4.80
2013,09,29,05,19,6.40
2013,09,29,05,20,4.80
2013,09,29,05,21,6.40
2013,09,29,05,22,6.40
2013,09,29,05,23,6.40
2013,09,29,05,24,6.40
2013,09,29,05,25,4.80
2013,09,29,05,26,1.60
2013,09,29,05,27,3.20
2013,09,29,05,28,4.80
2013,09,29,05,29,4.80
2013,09,29,05,30,3.20
2013,09,29,05,32,4.80
2013,09,29,05,33,4.80
2013,09,29,05,34,3.20
2013,09,29,05,35,3.20
2013,09,29,05,36,3.20
2013,09,29,05,37,3.20
2013,09,29,05,38,3.20
2013,09,29,05,39,3.20
2013,09,29,05,40,1.60
2013,09,29,05,41,1.60
2013,09,29,05,42,4.80
2013,09,29,05,43,4.80
2013,09,29,05,44,3.20
2013,09,29,05,45,3.20
2013,09,29,05,46,1.60
2013,09,29,05,47,3.20
2013,09,29,05,48,1.60
2013,09,29,05,49,1.60
2013,09,29,05,50,3.20
2013,09,29,05,51,1.60
2013,09,29,05,52,6.40
2013,09,29,05,53,4.80
2013,09,29,05,54,3.20
2013,09,29,05,55,3.20
2013,09,29,05,56,3.20
2013,09,29,05,57,4.80
2013,09,29,05,58,3.20
2013,09,29,05,59,4.80
2013,09,29,06,00,3.20
2013,09,29,06,01,9.60
2013,09,29,06,02,8.10
2013,09,29,06,03,9.60
2013,09,29,06,04,6.40
2013,09,29,06,05,6.40
2013,09,29,06,06,6.40
2013,09,29,06,07,3.20
2013,09,29,06,08,6.40
2013,09,29,06,09,9.60
2013,09,29,06,10,8.10
2013,09,29,06,11,8.10
2013,09,29,06,12,6.40
2013,09,29,06,13,6.40
2013,09,29,06,14,8.10
2013,09,29,06,15,6.40
2013,09,29,06,16,9.60
2013,09,29,06,17,6.40
2013,09,29,06,18,3.20
2013,09,29,06,19,4.80
2013,09,29,06,20,4.80
2013,09,29,06,21,8.10
2013,09,29,06,22,8.10
2013,09,29,06,23,9.60
2013,09,29,06,24,8.10
2013,09,29,06,25,6.40
2013,09,29,06,26,3.20
2013,09,29,06,27,8.10
2013,09,29,06,28,6.40
2013,09,29,06,29,6.40
2013,09,29,06,30,9.60
2013,09,29,06,31,12.90
2013,09,29,06,32,8.10
2013,09,29,06,33,9.60
2013,09,29,06,34,14.50
2013,09,29,06,35,4.80
2013,09,29,06,36,8.10
2013,09,29,06,37,8.10
2013,09,29,06,38,9.60
2013,09,29,06,39,9.60
2013,09,29,06,40,6.40
2013,09,29,06,41,8.10
2013,09,29,06,42,4.80
2013,09,29,06,43,9.60
2013,09,29,06,44,9.60
2013,09,29,06,45,8.10
2013,09,29,06,46,8.10
2013,09,29,06,47,9.60
2013,09,29,06,48,9.60
2013,09,29,06,49,9.60
2013,09,29,06,50,4.80
2013,09,29,06,51,4.80
2013,09,29,06,52,4.80
2013,09,29,06,53,11.30
2013,09,29,06,54,4.80
2013,09,29,06,55,3.20
2013,09,29,06,56,8.10
2013,09,29,06,57,9.60
2013,09,29,06,58,4.80
2013,09,29,06,59,4.80
2013,09,29,07,00,9.60
2013,09,29,07,01,6.40
2013,09,29,07,02,3.20
2013,09,29,07,03,8.10
2013,09,29,07,04,4.80
2013,09,29,07,05,3.20
2013,09,29,07,06,3.20
2013,09,29,07,07,4.80
2013,09,29,07,08,4.80
2013,09,29,07,09,4.80
2013,09,29,07,10,4.80
2013,09,29,07,11,6.40
2013,09,29,07,12,6.40
2013,09,29,07,13,1.60
2013,09,29,07,14,6.40
2013,09,29,07,15,6.40
2013,09,29,07,16,8.10
2013,09,29,07,17,3.20
2013,09,29,07,18,8.10
2013,09,29,07,19,6.40
2013,09,29,07,20,4.80
2013,09,29,07,21,3.20
2013,09,29,07,22,4.80
2013,09,29,07,23,1.60
2013,09,29,07,24,3.20
2013,09,29,07,25,4.80
2013,09,29,07,26,8.10
2013,09,29,07,27,3.20
2013,09,29,07,28,3.20
2013,09,29,07,29,8.10
2013,09,29,07,30,6.40
2013,09,29,07,31,4.80
2013,09,29,07,32,4.80
2013,09,29,07,33,3.20
2013,09,29,07,34,4.80
2013,09,29,07,35,6.40
2013,09,29,07,36,3.20
2013,09,29,07,37,4.80
2013,09,29,07,38,4.80
2013,09,29,07,39,6.40
2013,09,29,07,40,8.10
2013,09,29,07,41,6.40
2013,09,29,07,42,6.40
2013,09,29,07,43,3.20
2013,09,29,07,44,3.20
2013,09,29,07,45,1.60
2013,09,29,07,46,4.80
2013,09,29,07,47,1.60
2013,09,29,07,48,4.80
2013,09,29,07,49,6.40
2013,09,29,07,50,6.40
2013,09,29,07,51,3.20
2013,09,29,07,52,6.40
2013,09,29,07,53,6.40
2013,09,29,07,54,3.20
2013,09,29,07,55,4.80
2013,09,29,07,56,1.60
2013,09,29,07,57,4.80
2013,09,29,07,58,3.20
2013,09,29,07,59,3.20
2013,09,29,08,00,3.20
2013,09,29,08,01,6.40
2013,09,29,08,02,8.10
2013,09,29,08,03,6.40
2013,09,29,08,04,3.20
2013,09,29,08,05,11.30
2013,09,29,08,06,9.60
2013,09,29,08,07,6.40
2013,09,29,08,08,6.40
2013,09,29,08,09,1.60
2013,09,29,08,10,4.80
2013,09,29,08,11,3.20
2013,09,29,08,12,3.20
2013,09,29,08,13,3.20
2013,09,29,08,14,4.80
2013,09,29,08,15,6.40
2013,09,29,08,16,1.60
2013,09,29,08,17,1.60
2013,09,29,08,18,1.60
2013,09,29,08,19,3.20
2013,09,29,08,20,3.20
2013,09,29,08,21,6.40
2013,09,29,08,22,3.20
2013,09,29,08,23,6.40
2013,09,29,08,24,4.80
2013,09,29,08,25,3.20
2013,09,29,08,26,1.60
2013,09,29,08,27,6.40
2013,09,29,08,28,9.60
2013,09,29,08,29,8.10
2013,09,29,08,30,4.80
2013,09,29,08,31,4.80
2013,09,29,08,32,3.20
2013,09,29,08,33,4.80
2013,09,29,08,34,4.80
2013,09,29,08,35,3.20
2013,09,29,08,36,6.40
2013,09,29,08,37,6.40
2013,09,29,08,38,4.80
2013,09,29,08,39,1.60
2013,09,29,08,40,3.20
2013,09,29,08,41,3.20
2013,09,29,08,42,4.80
2013,09,29,08,43,4.80
2013,09,29,08,44,4.80
2013,09,29,08,45,6.40
2013,09,29,08,46,14.50
2013,09,29,08,47,9.60
2013,09,29,08,48,4.80
2013,09,29,08,49,8.10
2013,09,29,08,50,4.80
2013,09,29,08,51,4.80
2013,09,29,08,52,4.80
2013,09,29,08,53,3.20
2013,09,29,08,54,4.80
2013,09,29,08,55,3.20
2013,09,29,08,56,8.10
2013,09,29,08,57,6.40
2013,09,29,08,58,3.20
2013,09,29,08,59,4.80
2013,09,29,09,00,4.80
2013,09,29,09,01,3.20
2013,09,29,09,02,4.80
2013,09,29,09,03,6.40
2013,09,29,09,04,8.10
2013,09,29,09,05,8.10
2013,09,29,09,06,4.80
2013,09,29,09,07,6.40
2013,09,29,09,08,6.40
2013,09,29,09,09,3.20
2013,09,29,09,10,8.10
2013,09,29,09,11,3.20
2013,09,29,09,12,6.40
2013,09,29,09,13,12.90
2013,09,29,09,14,14.50
2013,09,29,09,15,8.10
2013,09,29,09,16,9.60
2013,09,29,09,17,9.60
2013,09,29,09,18,11.30
2013,09,29,09,19,11.30
2013,09,29,09,20,14.50
2013,09,29,09,21,16.10
2013,09,29,09,22,17.70
2013,09,29,09,23,16.10
2013,09,29,09,24,11.30
2013,09,29,09,25,16.10
2013,09,29,09,26,11.30
2013,09,29,09,27,11.30
2013,09,29,09,28,9.60
2013,09,29,09,29,9.60
2013,09,29,09,30,19.30
2013,09,29,09,31,8.10
2013,09,29,09,32,6.40
2013,09,29,09,33,8.10
2013,09,29,09,34,8.10
2013,09,29,09,35,6.40
2013,09,29,09,36,6.40
2013,09,29,09,37,9.60
2013,09,29,09,38,11.30
2013,09,29,09,39,6.40
2013,09,29,09,40,3.20
2013,09,29,09,41,4.80
2013,09,29,09,42,3.20
2013,09,29,09,43,4.80
2013,09,29,09,44,3.20
2013,09,29,09,45,4.80
2013,09,29,09,46,8.10
2013,09,29,09,47,9.60
2013,09,29,09,48,9.60
2013,09,29,09,49,11.30
2013,09,29,09,50,9.60
2013,09,29,09,51,6.40
2013,09,29,09,52,3.20
2013,09,29,09,53,4.80
2013,09,29,09,54,6.40
2013,09,29,09,55,6.40
2013,09,29,09,56,1.60
2013,09,29,09,57,3.20
2013,09,29,09,58,1.60
2013,09,29,09,59,1.60
2013,09,29,10,00,4.80
2013,09,29,10,01,6.40
2013,09,29,10,02,4.80
2013,09,29,10,03,8.10
2013,09,29,10,04,8.10
2013,09,29,10,05,4.80
2013,09,29,10,06,9.60
2013,09,29,10,07,8.10
2013,09,29,10,08,6.40
2013,09,29,10,09,4.80
2013,09,29,10,10,4.80
2013,09,29,10,11,1.60
2013,09,29,10,12,4.80
2013,09,29,10,13,6.40
2013,09,29,10,14,6.40
2013,09,29,10,15,9.60
2013,09,29,10,16,6.40
2013,09,29,10,17,6.40
2013,09,29,10,18,4.80
2013,09,29,10,19,6.40
2013,09,29,10,20,4.80
2013,09,29,10,21,4.80
2013,09,29,10,22,1.60
2013,09,29,10,23,3.20
2013,09,29,10,24,3.20
2013,09,29,10,25,4.80
2013,09,29,10,26,3.20
2013,09,29,10,27,4.80
2013,09,29,10,28,4.80
2013,09,29,10,29,3.20
2013,09,29,10,30,8.10
2013,09,29,10,31,8.10
2013,09,29,10,32,8.10
2013,09,29,10,33,9.60
2013,09,29,10,34,11.30
2013,09,29,10,35,9.60
2013,09,29,10,36,8.10
2013,09,29,10,37,8.10
2013,09,29,10,38,8.10
2013,09,29,10,39,6.40
2013,09,29,10,40,4.80
2013,09,29,10,41,6.40
2013,09,29,10,42,6.40
2013,09,29,10,43,6.40
2013,09,29,10,44,4.80
2013,09,29,10,45,3.20
2013,09,29,10,46,3.20
2013,09,29,10,47,3.20
2013,09,29,10,48,4.80
2013,09,29,10,49,8.10
2013,09,29,10,50,6.40
2013,09,29,10,51,6.40
2013,09,29,10,52,8.10
2013,09,29,10,53,6.40
2013,09,29,10,54,6.40
2013,09,29,10,55,9.60
2013,09,29,10,56,4.80
2013,09,29,10,57,4.80
2013,09,29,10,58,4.80
2013,09,29,10,59,3.20
2013,09,29,11,00,1.60
2013,09,29,11,01,1.60
2013,09,29,11,02,4.80
2013,09,29,11,03,3.20
2013,09,29,11,04,4.80
2013,09,29,11,05,6.40
2013,09,29,11,06,3.20
2013,09,29,11,07,1.60
2013,09,29,11,08,1.60
2013,09,29,11,09,1.60
2013,09,29,11,10,3.20
2013,09,29,11,11,3.20
2013,09,29,11,12,3.20
2013,09,29,11,13,4.80
2013,09,29,11,14,4.80
2013,09,29,11,15,3.20
2013,09,29,11,16,4.80
2013,09,29,11,17,1.60
2013,09,29,11,18,3.20
2013,09,29,11,19,3.20
2013,09,29,11,21,4.80
2013,09,29,11,22,3.20
2013,09,29,11,23,3.20
2013,09,29,11,24,1.60
2013,09,29,11,25,3.20
2013,09,29,11,26,1.60
2013,09,29,11,27,3.20
2013,09,29,11,28,4.80
2013,09,29,11,29,3.20
2013,09,29,11,30,3.20
2013,09,29,11,31,3.20
2013,09,29,11,32,1.60
2013,09,29,11,33,3.20
2013,09,29,11,34,4.80
2013,09,29,11,35,3.20
2013,09,29,11,36,4.80
2013,09,29,11,37,4.80
2013,09,29,11,38,3.20
2013,09,29,11,39,1.60
2013,09,29,11,42,1.60
2013,09,29,11,43,3.20
2013,09,29,11,44,3.20
2013,09,29,11,45,3.20
2013,09,29,11,46,1.60
2013,09,29,11,49,3.20
2013,09,29,11,50,4.80
2013,09,29,11,51,4.80
2013,09,29,11,52,4.80
2013,09,29,11,53,3.20
2013,09,29,11,54,1.60
2013,09,29,11,55,3.20
2013,09,29,11,56,4.80
2013,09,29,11,59,3.20
2013,09,29,12,00,4.80
2013,09,29,12,01,3.20
2013,09,29,12,02,3.20
2013,09,29,12,03,3.20
2013,09,29,12,04,4.80
2013,09,29,12,05,4.80
2013,09,29,12,06,3.20
2013,09,29,12,07,4.80
2013,09,29,12,08,8.10
2013,09,29,12,09,6.40
2013,09,29,12,10,6.40
2013,09,29,12,11,3.20
2013,09,29,12,12,1.60
2013,09,29,12,14,1.60
2013,09,29,12,15,4.80
2013,09,29,12,16,3.20
2013,09,29,12,17,6.40
2013,09,29,12,18,4.80
2013,09,29,12,19,3.20
2013,09,29,12,20,4.80
2013,09,29,12,21,4.80
2013,09,29,12,22,3.20
2013,09,29,12,23,4.80
2013,09,29,12,24,6.40
2013,09,29,12,25,4.80
2013,09,29,12,26,1.60
2013,09,29,12,32,1.60
2013,09,29,12,33,1.60
2013,09,29,12,34,1.60
2013,09,29,12,35,1.60
2013,09,29,12,36,1.60
2013,09,29,12,43,1.60
2013,09,29,12,44,3.20
2013,09,29,12,45,3.20
2013,09,29,12,46,3.20
2013,09,29,12,47,3.20
2013,09,29,12,48,4.80
2013,09,29,12,49,3.20
2013,09,29,12,50,3.20
2013,09,29,12,51,4.80
2013,09,29,12,52,4.80
2013,09,29,12,53,3.20
2013,09,29,12,54,3.20
2013,09,29,12,55,3.20
2013,09,29,12,56,3.20
2013,09,29,12,57,3.20
2013,09,29,12,58,3.20
2013,09,29,12,59,1.60
2013,09,29,13,00,1.60
2013,09,29,13,01,1.60
2013,09,29,13,02,1.60
2013,09,29,13,03,1.60
2013,09,29,13,05,3.20
2013,09,29,13,06,3.20
2013,09,29,13,09,1.60
2013,09,29,13,10,3.20
2013,09,29,13,11,4.80
2013,09,29,13,12,4.80
2013,09,29,13,13,4.80
2013,09,29,13,14,3.20
2013,09,29,13,15,4.80
2013,09,29,13,16,4.80
2013,09,29,13,17,1.60
2013,09,29,13,18,3.20
2013,09,29,13,19,4.80
2013,09,29,13,20,4.80
2013,09,29,13,21,3.20
2013,09,29,13,22,3.20
2013,09,29,13,23,3.20
2013,09,29,13,24,4.80
2013,09,29,13,25,6.40
2013,09,29,13,26,4.80
2013,09,29,13,27,4.80
2013,09,29,13,28,4.80
2013,09,29,13,29,6.40
2013,09,29,13,30,6.40
2013,09,29,13,31,6.40
2013,09,29,13,32,8.10
2013,09,29,13,33,9.60
2013,09,29,13,34,9.60
2013,09,29,13,35,6.40
2013,09,29,13,36,6.40
2013,09,29,13,37,8.10
2013,09,29,13,38,8.10
2013,09,29,13,39,8.10
2013,09,29,13,40,4.80
2013,09,29,13,41,4.80
2013,09,29,13,42,6.40
2013,09,29,13,43,6.40
2013,09,29,13,44,4.80
2013,09,29,13,45,4.80
2013,09,29,13,46,4.80
2013,09,29,13,47,4.80
2013,09,29,13,48,8.10
2013,09,29,13,49,4.80
2013,09,29,13,50,4.80
2013,09,29,13,51,8.10
2013,09,29,13,52,8.10
2013,09,29,13,53,6.40
2013,09,29,13,54,6.40
2013,09,29,13,55,4.80
2013,09,29,13,56,4.80
2013,09,29,13,57,4.80
2013,09,29,13,58,3.20
2013,09,29,13,59,3.20
2013,09,29,14,00,3.20
2013,09,29,14,01,1.60
2013,09,29,14,02,1.60
2013,09,29,14,03,3.20
2013,09,29,14,04,3.20
2013,09,29,14,05,4.80
2013,09,29,14,06,3.20
2013,09,29,14,07,4.80
2013,09,29,14,08,4.80
2013,09,29,14,09,3.20
2013,09,29,14,10,6.40
2013,09,29,14,11,8.10
2013,09,29,14,12,8.10
2013,09,29,14,13,9.60
2013,09,29,14,14,9.60
2013,09,29,14,15,9.60
2013,09,29,14,16,6.40
2013,09,29,14,17,8.10
2013,09,29,14,18,6.40
2013,09,29,14,19,4.80
2013,09,29,14,20,6.40
2013,09,29,14,21,6.40
2013,09,29,14,22,6.40
2013,09,29,14,23,8.10
2013,09,29,14,24,6.40
2013,09,29,14,25,6.40
2013,09,29,14,26,8.10
2013,09,29,14,27,8.10
2013,09,29,14,28,8.10
2013,09,29,14,29,6.40
2013,09,29,14,30,6.40
2013,09,29,14,31,4.80
2013,09,29,14,32,6.40
2013,09,29,14,33,4.80
2013,09,29,14,34,4.80
2013,09,29,14,35,6.40
2013,09,29,14,36,6.40
2013,09,29,14,37,6.40
2013,09,29,14,38,4.80
2013,09,29,14,39,4.80
2013,09,29,14,40,6.40
2013,09,29,14,41,4.80
2013,09,29,14,42,6.40
2013,09,29,14,43,4.80
2013,09,29,14,44,6.40
2013,09,29,14,45,9.60
2013,09,29,14,46,4.80
2013,09,29,14,47,6.40
2013,09,29,14,48,3.20
2013,09,29,14,49,6.40
2013,09,29,14,50,4.80
2013,09,29,14,51,8.10
2013,09,29,14,52,4.80
2013,09,29,14,53,6.40
2013,09,29,14,54,8.10
2013,09,29,14,55,6.40
2013,09,29,14,56,8.10
2013,09,29,14,57,8.10
2013,09,29,14,58,8.10
2013,09,29,14,59,6.40
2013,09,29,15,00,9.60
2013,09,29,15,01,8.10
2013,09,29,15,02,8.10
2013,09,29,15,03,9.60
2013,09,29,15,04,9.60
2013,09,29,15,05,8.10
2013,09,29,15,06,9.60
2013,09,29,15,07,9.60
2013,09,29,15,08,8.10
2013,09,29,15,09,9.60
2013,09,29,15,10,12.90
2013,09,29,15,11,12.90
2013,09,29,15,12,14.50
2013,09,29,15,13,12.90
2013,09,29,15,14,16.10
2013,09,29,15,15,14.50
2013,09,29,15,16,11.30
2013,09,29,15,17,12.90
2013,09,29,15,18,14.50
2013,09,29,15,19,14.50
2013,09,29,15,20,11.30
2013,09,29,15,21,9.60
2013,09,29,15,22,12.90
2013,09,29,15,23,14.50
2013,09,29,15,24,9.60
2013,09,29,15,25,11.30
2013,09,29,15,26,11.30
2013,09,29,15,27,8.10
2013,09,29,15,28,8.10
2013,09,29,15,29,9.60
2013,09,29,15,30,8.10
2013,09,29,15,31,8.10
2013,09,29,15,32,11.30
2013,09,29,15,33,9.60
2013,09,29,15,34,9.60
2013,09,29,15,35,9.60
2013,09,29,15,36,6.40
2013,09,29,15,37,4.80
2013,09,29,15,38,4.80
2013,09,29,15,39,6.40
2013,09,29,15,40,6.40
2013,09,29,15,41,4.80
2013,09,29,15,42,8.10
2013,09,29,15,43,6.40
2013,09,29,15,44,8.10
2013,09,29,15,45,9.60
2013,09,29,15,46,4.80
2013,09,29,15,47,4.80
2013,09,29,15,48,4.80
2013,09,29,15,49,3.20
2013,09,29,15,50,6.40
2013,09,29,15,51,3.20
2013,09,29,15,52,3.20
2013,09,29,15,53,4.80
2013,09,29,15,54,6.40
2013,09,29,15,55,3.20
2013,09,29,15,56,8.10
2013,09,29,15,57,17.70
2013,09,29,15,58,17.70
2013,09,29,15,59,19.30
2013,09,29,16,00,11.30
2013,09,29,16,01,8.10
2013,09,29,16,02,6.40
2013,09,29,16,03,6.40
2013,09,29,16,04,8.10
2013,09,29,16,05,6.40
2013,09,29,16,06,11.30
2013,09,29,16,07,16.10
2013,09,29,16,08,16.10
2013,09,29,16,09,9.60
2013,09,29,16,10,16.10
2013,09,29,16,11,17.70
2013,09,29,16,12,14.50
2013,09,29,16,13,11.30
2013,09,29,16,14,9.60
2013,09,29,16,15,16.10
2013,09,29,16,16,25.70
2013,09,29,16,17,22.50
2013,09,29,16,18,19.30
2013,09,29,16,19,22.50
2013,09,29,16,20,29.00
2013,09,29,16,21,30.60
2013,09,29,16,22,35.40
2013,09,29,16,23,27.40
2013,09,29,16,24,32.20
2013,09,29,16,25,29.00
2013,09,29,16,26,33.80
2013,09,29,16,27,33.80
2013,09,29,16,28,41.80
2013,09,29,16,29,32.20
2013,09,29,16,30,37.00
2013,09,29,16,31,38.60
2013,09,29,16,32,37.00
2013,09,29,16,33,40.20
2013,09,29,16,34,38.60
2013,09,29,16,35,35.40
2013,09,29,16,36,30.60
2013,09,29,16,37,38.60
2013,09,29,16,38,32.20
2013,09,29,16,39,37.00
2013,09,29,16,40,38.60
2013,09,29,16,41,38.60
2013,09,29,16,42,37.00
2013,09,29,16,43,30.60
2013,09,29,16,44,38.60
2013,09,29,16,45,38.60
2013,09,29,16,46,43.50
2013,09,29,16,47,37.00
2013,09,29,16,48,37.00
2013,09,29,16,49,45.10
2013,09,29,16,50,43.50
2013,09,29,16,51,33.80
2013,09,29,16,52,37.00
2013,09,29,16,53,45.10
2013,09,29,16,54,46.70
2013,09,29,16,55,51.50
2013,09,29,16,56,48.30
2013,09,29,16,57,43.50
2013,09,29,16,58,41.80
2013,09,29,16,59,49.90
2013,09,29,17,00,37.00
2013,09,29,17,01,37.00
2013,09,29,17,02,45.10
2013,09,29,17,03,40.20
2013,09,29,17,04,41.80
2013,09,29,17,05,45.10
2013,09,29,17,06,35.40
2013,09,29,17,07,49.90
2013,09,29,17,08,35.40
2013,09,29,17,09,35.40
2013,09,29,17,10,41.80
2013,09,29,17,11,43.50
2013,09,29,17,12,41.80
2013,09,29,17,13,41.80
2013,09,29,17,14,45.10
2013,09,29,17,15,40.20
2013,09,29,17,16,37.00
2013,09,29,17,17,40.20
2013,09,29,17,18,40.20
2013,09,29,17,19,29.00
2013,09,29,17,20,41.80
2013,09,29,17,21,32.20
2013,09,29,17,22,49.90
2013,09,29,17,23,48.30
2013,09,29,17,24,49.90
2013,09,29,17,25,43.50
2013,09,29,17,26,45.10
2013,09,29,17,27,40.20
2013,09,29,17,28,40.20
2013,09,29,17,29,35.40
2013,09,29,17,30,43.50
2013,09,29,17,31,37.00
2013,09,29,17,32,33.80
2013,09,29,17,33,40.20
2013,09,29,17,34,41.80
2013,09,29,17,35,37.00
2013,09,29,17,36,51.50
2013,09,29,17,37,46.70
2013,09,29,17,38,33.80
2013,09,29,17,39,45.10
2013,09,29,17,40,43.50
2013,09,29,17,41,53.10
2013,09,29,17,42,53.10
2013,09,29,17,43,53.10
2013,09,29,17,44,45.10
2013,09,29,17,45,46.70
2013,09,29,17,46,46.70
2013,09,29,17,47,53.10
2013,09,29,17,48,37.00
2013,09,29,17,49,45.10
2013,09,29,17,50,59.50
2013,09,29,17,51,61.20
2013,09,29,17,52,40.20
2013,09,29,17,53,49.90
2013,09,29,17,54,45.10
2013,09,29,17,55,46.70
2013,09,29,17,56,37.00
2013,09,29,17,57,51.50
2013,09,29,17,58,41.80
2013,09,29,17,59,45.10
2013,09,29,18,00,51.50
2013,09,29,18,01,62.70
2013,09,29,18,02,51.50
2013,09,29,18,03,54.70
2013,09,29,18,04,53.10
2013,09,29,18,05,38.60
2013,09,29,18,06,56.30
2013,09,29,18,07,49.90
2013,09,29,18,08,53.10
2013,09,29,18,09,62.70
2013,09,29,18,10,41.80
2013,09,29,18,11,51.50
2013,09,29,18,12,37.00
2013,09,29,18,13,38.60
2013,09,29,18,14,41.80
2013,09,29,18,15,41.80
2013,09,29,18,16,35.40
2013,09,29,18,17,40.20
2013,09,29,18,18,40.20
2013,09,29,18,19,45.10
2013,09,29,18,20,41.80
2013,09,29,18,21,37.00
2013,09,29,18,22,38.60
2013,09,29,18,23,38.60
2013,09,29,18,24,38.60
2013,09,29,18,25,37.00
2013,09,29,18,26,41.80
2013,09,29,18,27,38.60
2013,09,29,18,28,51.50
2013,09,29,18,29,48.30
2013,09,29,18,30,56.30
2013,09,29,18,31,54.70
2013,09,29,18,32,54.70
2013,09,29,18,33,51.50
2013,09,29,18,34,62.70
2013,09,29,18,35,56.30
2013,09,29,18,36,57.90
2013,09,29,18,37,49.90
2013,09,29,18,38,48.30
2013,09,29,18,39,57.90
2013,09,29,18,40,51.50
2013,09,29,18,41,53.10
2013,09,29,18,42,49.90
2013,09,29,18,43,46.70
2013,09,29,18,44,64.40